sat.trackr.live / text

‹ back to catalog

STARLINK-34515

NORAD 64712 · 2025-142S

PAYLOAD ACTIVE UNKNOWN

§ Identity

Operator
Country
US
Launch date
2025-06-28
Launch site
AFWTR
Launch vehicle
Mass (kg)
RCS (m²)

Purposes: comms

External: N2YO · Heavens-Above · Gunter

§ Orbital elements

Epoch: 2026-05-25T04:36:34.205184Z

Period
96.11 min
Inclination
70.0001°
Eccentricity
0.0003422
Mean motion
14.98335551 rev/d
Perigee alt
569.7 km
Apogee alt
574.4 km
Semi-major
6,950.2 km
B*
2.6179e-4
RAAN
121.3981°
Arg perigee
268.3631°
Mean anomaly
91.7136°
Rev number
5,092

§ Raw data

STARLINK-345151 64712U 25142S   26145.19206256  .00003032  00000+0  26179-3 0  99982 64712  70.0001 121.3981 0003422 268.3631  91.7136 14.98335551 50922

JSON: /api/v1/satellites/64712 · /tle

For live sub-satellite position, see the globe view (requires WebGL).

§ Visibility from observer

Set your observer location to see the next 7 days of passes ≥ 10°. The values pass through the URL so the page stays shareable.

No JS? Fill the form by hand. The geolocation button needs JavaScript.